Back to catalog

COSMOS 1233

AliveNavigationLEO
NORAD 12112·PAYLOAD·🇷🇺 Russia

Launched Dec 23, 1980 from Plesetsk Cosmodrome

Loading…

Next Passes (next 24 hours)

TLE

FreshSource: Space-Track

Epoch: Sep 14, 2026, 14:11 UTC

1 12112U 80102F   26257.59157836 -.00000005  00000-0  70997-4 0  9996
2 12112  73.9929 294.0339 0029677 346.4712 181.4777 12.55586407 95750

Track COSMOS 1233 in real time with AllMySat

Download on the App Store